Location: Vallejo Observatory
(38.1221°N, 122.2109°W)
Time: 04:59:51
(UTC-07:00)

Daily predictions for brighter satellites

Satellite Brightness Start Highest point End
(mag) Time Altitude Azimuth Time Altitude Azimuth Time Altitude Azimuth
Cosmos 2369 Rocket 3.6 00:09:50 27° ENE 00:09:50 27° ENE 00:12:45 10° NE
NOSS 3-1 (C) 4.5 00:08:22 10° NNW 00:15:47 54° NE 00:17:48 45° E
Cosmos 2285 Rocket 4.3 00:26:11 57° ENE 00:26:11 57° ENE 00:31:31 10° NNE
Cosmos 1821 Rocket 4.0 00:25:52 74° WNW 00:25:52 74° WNW 00:31:56 10° N
Cosmos 1605 Rocket 4.3 00:26:47 60° ENE 00:26:47 60° ENE 00:32:28 10° NNE
CZ-2C R/B 4.3 00:27:06 10° NE 00:29:39 23° ENE 00:29:39 23° ENE
H-2A R/B 4.3 00:30:21 10° NNE 00:32:43 30° NNE 00:32:43 30° NNE
BREEZE-M TANK 4.4 00:34:03 10° WNW 00:37:10 27° NW 00:37:10 27° NW
ALOS 2 4.3 00:43:14 32° N 00:43:14 32° N 00:45:37 10° N
Cosmos 2123 Rocket 4.1 00:37:12 10° N 00:42:53 74° NNW 00:42:53 74° NNW
Cosmos 1934 Rocket 4.2 00:44:32 61° WNW 00:44:32 61° WNW 00:50:03 10° N
Cosmos 1833 Rocket 4.3 00:42:42 10° NW 00:46:00 24° W 00:46:00 24° W
Cosmos 1943 Rocket 3.7 00:56:48 27° ENE 00:56:48 27° ENE 00:59:45 10° NE
Meteor 2-4 Rocket 4.4 00:51:56 10° NNW 00:55:59 47° NW 00:55:59 47° NW
Cosmos 2082 Rocket 4.4 00:59:04 10° WNW 01:00:57 14° W 01:00:57 14° W
SeaSat 1 4.4 01:10:09 21° ENE 01:10:46 21° NE 01:14:24 10° N
Lacrosse 5 3.1 01:32:52 37° NNW 01:32:52 37° NNW 01:37:04 10° NNE
BREEZE-M DEB (TANK) 4.4 01:30:36 10° NW 01:34:34 51° NE 01:49:16 10° ESE
NOSS 3-1 (A) 4.0 01:27:23 10° NW 01:34:54 70° WSW 01:34:54 70° WSW
Cosmos 2100 Rocket 4.2 01:48:12 65° NW 01:48:12 65° NW 01:54:01 10° N
Cosmos 2369 Rocket 3.6 01:51:36 29° WNW 01:51:40 29° WNW 01:56:34 10° N
Cosmos 2061 Rocket 4.2 01:54:48 64° WNW 01:54:48 64° WNW 02:00:45 10° N
ATLAS 2AS CENTAUR R/B 3.2 01:48:35 10° NNW 01:56:41 69° NE 01:58:44 51° ESE
Cosmos 2219 3.9 01:54:17 10° N 01:59:43 47° ENE 01:59:47 47° ENE
Cosmos 44 Rocket 4.3 02:01:27 10° NNW 02:05:47 45° NNE 02:05:47 45° NNE
Lacrosse 5 rocket 4.1 02:09:18 12° NNW 02:09:18 12° NNW 02:10:42 10° N
Cosmos 2016 Rocket 4.1 02:10:58 63° NW 02:10:58 63° NW 02:16:30 10° N
Cosmos 1802 Rocket 4.3 02:11:04 54° WNW 02:11:04 54° WNW 02:16:43 10° N
CZ-2C R/B 3.9 02:07:16 10° N 02:11:10 31° NW 02:11:10 31° NW
Cosmos 1241 Rocket 4.5 02:07:07 10° NNW 02:13:39 80° ENE 02:13:47 79° ENE
CZ-2C R/B 4.3 02:16:59 30° NW 02:16:59 30° NW 02:19:48 10° NNW
Cosmos 1864 Rocket 4.5 02:30:20 72° WNW 02:30:20 72° WNW 02:36:26 10° N
Cosmos 1656 Rocket 3.9 02:35:32 63° NW 02:35:32 63° NW 02:40:45 10° NNE
SL-08 R/B 4.2 02:36:29 42° ENE 02:36:30 42° ENE 02:40:54 10° N
Cosmos 1943 Rocket 3.4 02:38:19 29° WNW 02:38:27 29° WNW 02:43:17 10° N
Meteor 2-17 Rocket 4.3 02:40:28 79° SE 02:40:42 80° E 02:46:50 10° N
NPP 3.9 02:38:54 10° NNE 02:44:08 62° E 02:44:08 62° E
Cosmos 1725 Rocket 4.2 02:44:44 53° WNW 02:44:44 53° WNW 02:50:40 10° N
ATLAS CENTAUR R/B 3.9 02:45:31 18° ESE 02:45:31 18° ESE 02:48:37 10° ENE
Cosmos 1570 Rocket 4.1 02:47:16 72° NNW 02:47:16 72° NNW 02:52:10 10° NNE
SeaSat 1 3.7 02:49:57 32° NW 02:49:57 32° NW 02:52:45 10° NW
BREEZE-M DEB (TANK) 3.9 02:45:39 10° NW 02:51:05 32° NNE 02:51:34 31° NNE
Cosmos 1816 Rocket 4.4 02:45:03 10° N 02:51:18 72° W 02:51:28 71° WSW
Resurs 1-4 Rocket 4.1 02:48:01 10° NE 02:51:33 18° E 02:53:23 15° ESE
Tsikada Rocket 4.2 02:47:11 10° NNW 02:53:07 53° W 02:53:07 53° W
Cosmos 44 3.9 02:49:35 10° NNW 02:54:42 56° ENE 02:55:22 51° E
SL-16 R/B 4.2 02:53:13 10° ESE 02:58:27 30° ENE 03:03:40 10° N
CZ-3B DEB 4.4 02:32:11 10° NW 03:00:05 51° WSW 03:04:22 41° SSW
Cosmos 2228 4.0 03:03:04 42° NNW 03:03:04 42° NNW 03:06:07 10° N
ERS-2 3.7 02:58:22 10° NNE 03:00:53 33° ENE 03:00:53 33° ENE
ADEOS 4.0 02:58:45 10° NNE 03:03:50 51° E 03:04:22 49° ESE
Geosat 3.9 03:06:00 10° NNE 03:11:03 80° WNW 03:11:07 80° WNW
ARIANE 5 R/B 3.3 03:14:30 10° NNE 03:19:23 43° E 03:20:42 36° SE
Cosmos 1812 Rocket 3.6 03:24:45 75° NW 03:24:45 75° NW 03:28:57 10° N
Spot 4 Rocket 4.0 03:25:24 10° NNE 03:30:36 81° ESE 03:31:32 60° S
Meteor 2-5 Rocket 3.8 03:27:11 10° N 03:33:05 81° E 03:35:35 37° SSE
SME Rocket 4.3 03:33:13 23° SSE 03:36:37 67° ENE 03:44:19 10° N
Cosmos 2082 3.7 03:32:36 10° NNW 03:38:16 78° ENE 03:42:03 22° SSE
Cosmos 1697 Rocket 3.6 03:36:48 28° SSE 03:39:05 41° ESE 03:44:22 10° NE
Cosmos 2298 Rocket 4.0 03:36:15 10° NNW 03:41:34 85° ENE 03:44:02 33° SSE
IRS-1D 3.6 03:36:40 10° NNE 03:41:36 65° ESE 03:43:05 43° SSE
CZ-2D R/B 2.7 03:36:59 10° NNE 03:42:21 55° E 03:44:43 32° SSE
IRS-1C 4.3 03:39:19 10° N 03:44:31 53° WNW 03:45:30 47° WSW
Cosmos 1980 Rocket 3.8 03:42:58 16° SSE 03:46:19 27° ESE 03:51:00 10° NE
ATLAS 2AS CENTAUR R/B 4.0 03:40:50 10° NW 03:46:05 25° W 03:46:05 25° W
Blok-2BL 4.5 03:41:03 10° NW 03:47:17 77° WSW 03:50:24 26° SSE
Cosmos 1464 Rocket 4.1 03:45:50 44° SW 03:47:36 61° W 03:53:52 10° N
Cosmos 1814 Rocket 4.0 03:46:33 50° S 03:48:01 85° ESE 03:53:25 10° NNE
Cosmos 2227 Rocket 2.1 03:45:13 10° NNW 03:50:54 78° WSW 03:54:05 27° SSE
Okean 3 Rocket 3.4 03:49:22 10° N 03:53:47 87° W 03:54:48 53° S
Milstar 3 Cent rocket 3.1 03:57:08 30° S 03:57:51 31° SSE 04:04:32 10° ESE
Cosmos 1766 3.6 03:57:00 43° SSE 03:58:02 61° E 04:01:57 10° NNE
Cosmos 405 Rocket 3.0 03:57:09 10° NNW 04:00:59 50° W 04:00:59 50° W
BREEZE-M DEB (TANK) 4.2 04:01:37 13° NW 04:03:21 21° N 04:06:09 10° ENE
Cosmos 2278 4.3 04:02:08 33° WSW 04:03:53 42° WNW 04:09:16 10° N
Cosmos 2369 4.1 04:02:32 36° WSW 04:04:21 48° WNW 04:09:50 10° N
Cosmos 1092 Rocket 4.4 04:00:20 10° N 04:06:35 63° E 04:12:50 10° SSE
UNKNOWN OBJECT B 2.9 04:07:39 10° NNE 04:11:35 72° ESE 04:12:58 37° S
GEOS 3 Rocket 3.5 04:07:05 10° SSE 04:12:18 74° WSW 04:17:30 10° NW
Cosmos 2297 Rocket 2.1 04:07:08 10° NNW 04:12:46 73° WSW 04:18:23 10° SSE
Cosmos 858 Rocket 4.5 04:08:56 10° NNW 04:14:06 61° WSW 04:17:14 24° S
Cosmos 1953 3.3 04:12:28 19° SSE 04:15:02 45° E 04:18:55 10° NNE
MOS 1-B 4.3 04:10:01 10° NNE 04:15:52 87° ESE 04:19:32 24° SSW
CZ-2D R/B 4.0 04:11:47 10° NNE 04:16:05 61° E 04:18:42 23° S
ISS -0.6 04:13:44 10° NNW 04:16:18 21° NNE 04:18:51 10° E
USA 161 3.7 04:18:09 16° NW 04:18:09 16° NW 04:19:03 10° NW
Meteor 2-12 Rocket 4.4 04:16:29 28° SSW 04:19:48 69° W 04:25:51 10° N
Cosmos 990 Rocket 4.0 04:14:32 10° NNW 04:19:50 85° ENE 04:25:05 10° SSE
Cosmos 2150 Rocket 4.2 04:15:32 10° NNW 04:20:31 47° WSW 04:22:53 28° SSW
Meteor 1-22 Rocket 4.4 04:18:09 28° SSW 04:21:28 68° W 04:27:34 10° N
EO 1 Del DPAF 3.2 04:20:56 35° S 04:22:24 64° WSW 04:26:16 10° NNW
ATLAS CENTAUR R/B 2.1 04:21:52 32° WSW 04:24:00 57° WNW 04:28:58 10° NNE
Cosmos 1378 3.0 04:23:07 10° N 04:26:55 77° W 04:28:58 26° S
Meteor 1-24 Rocket 3.8 04:21:20 10° NNW 04:26:56 61° W 04:31:35 16° S
SL-16 R/B 4.3 04:23:17 10° SSE 04:27:30 22° E 04:31:42 10° NE
Resurs 1-4 Rocket 2.4 04:26:34 10° N 04:31:39 50° WNW 04:34:27 25° SW
Cosmos 1805 3.5 04:30:33 19° S 04:33:18 68° E 04:37:11 10° NNE
Okean O Rocket 1.9 04:29:39 10° NNE 04:34:02 66° ESE 04:37:39 15° S
ERS-2 4.4 04:33:50 10° NW 04:35:19 12° WNW 04:35:43 12° WNW
Cosmos 1898 Rocket 4.2 04:32:06 10° NW 04:36:50 33° W 04:39:14 23° SW
NOSS 7 (H) 4.2 04:38:12 35° SW 04:39:26 83° NW 04:42:44 10° NNE
Cosmos 1743 Rocket 4.1 04:35:21 10° N 04:39:38 59° E 04:43:55 10° SSE
Cosmos 1441 Rocket 3.2 04:36:00 10° NNW 04:39:58 66° W 04:43:16 14° S
Cosmos 1707 4.3 04:38:15 10° NW 04:41:00 19° W 04:41:00 19° W
SL-16 R/B 2.9 04:37:31 17° SSW 04:41:51 41° W 04:47:39 10° NNW
Cosmos 1125 Rocket 4.2 04:38:01 10° N 04:43:09 55° ENE 04:48:14 10° SSE
Cosmos 1076 Rocket 3.7 04:40:09 10° NNW 04:44:19 48° W 04:47:20 17° SSW
Cosmos 2279 Rocket 4.4 04:42:11 10° S 04:48:21 65° E 04:54:33 10° NNE
CZ-4B R/B 3.4 04:43:01 10° NNE 04:48:35 74° ESE 04:54:00 10° S
MTI 4.3 04:47:32 25° SSW 04:49:00 40° W 04:52:07 10° NNW
Cosmos 841 Rocket 3.8 04:46:48 20° SW 04:50:15 52° WNW 04:55:25 10° N
GPS 2-04 Rocket1 2.7 04:49:21 23° WSW 04:51:37 58° S 04:55:18 10° E
Cosmos 1937 Rocket 4.2 04:48:13 10° NW 04:52:47 32° W 04:56:58 12° SSW
Meteor 1-21 Rocket 4.3 04:51:22 10° N 04:57:19 88° W 05:03:15 10° S
ARGOS Delta rocket 4.2 04:52:31 10° NNE 04:57:42 73° E 05:02:33 10° S
CZ-3 R/B 3.8 04:37:41 17° SW 04:58:10 42° S 05:05:47 10° ESE
Cosmos 1655 Rocket 4.2 04:51:43 10° N 04:58:10 84° E 05:04:33 10° S
ARIANE 5 R/B 4.0 04:54:24 10° NNW 04:58:12 21° WNW 05:01:03 14° WSW
Cosmos 1763 Rocket 4.2 04:55:30 18° SW 04:58:56 38° WNW 05:03:47 10° N
BREEZE-M DEB (TANK) 3.3 04:58:19 15° WSW 05:02:11 54° NNW 05:06:22 10° NE
Cosmos 1408 Rocket 4.4 04:59:25 10° NNW 05:03:18 31° W 05:06:42 13° SSW
Cosmos 1766 Rocket 4.3 05:00:08 10° NNW 05:04:06 34° W 05:07:55 11° SSW
Cosmos 1437 2.7 05:01:13 10° NNW 05:04:33 77° W 05:07:52 10° S
ASTRO E2 3.9 05:02:59 17° SW 05:05:02 26° S 05:08:25 10° SE
Cosmos-2242 3.6 05:03:09 15° SW 05:06:22 40° W 05:10:27 10° N
CZ-4B R/B 2.7 05:03:15 10° N 05:07:14 79° WNW 05:11:01 10° SSW
NOSS 3-4 (A) 4.0 05:03:28 10° NW 05:10:13 49° WSW 05:17:20 10° S
NOSS 3-4 (C) 4.0 05:03:34 10° NW 05:10:22 49° WSW 05:17:30 10° S
Thor Agena Rocket 3.4 05:05:35 10° SSE 05:10:38 83° WSW 05:15:43 10° NNW
Okean-O 3.3 05:09:25 10° NNE 05:13:47 57° E 05:18:09 10° S
CZ-2C R/B 4.1 05:11:43 10° S 05:16:13 46° W 05:20:43 10° NNW
CZ-2D R/B 3.8 05:18:13 10° NNW 05:21:57 19° WNW 05:25:40 10° WSW
Cosmos 1697 Rocket 3.9 05:18:34 11° WSW 05:23:09 27° WNW 05:27:56 10° N
PSLV R/B 3.8 05:19:13 10° NNE 05:23:27 73° ESE 05:27:41 10° S
Cosmos 1842 Rocket 3.8 05:19:11 10° SSW 05:23:34 55° W 05:27:59 10° N
CZ-4B DEB 4.4 05:18:18 10° N 05:23:45 60° WNW 05:29:09 10° SSW
ADEOS Rocket 3.8 05:18:27 10° NNE 05:24:52 62° ESE 05:31:57 10° S
Cosmos 1470 2.8 05:23:09 10° SSW 05:27:02 65° W 05:30:59 10° N
Cosmos 1544 3.7 05:24:19 10° SSW 05:27:45 37° W 05:31:11 10° N
SL-24 R/B - RUBIN 2 4.4 05:22:38 10° SSW 05:28:12 81° ESE 05:34:32 10° NNE
Cosmos 1674 2.6 05:24:44 10° NNW 05:28:30 71° W 05:32:14 10° S
Cosmos 1980 Rocket 2.9 05:24:54 10° SW 05:30:06 38° WNW 05:35:21 10° N
Cosmos 2360 Rocket 4.1 05:26:06 10° SSE 05:30:49 28° ESE 05:35:32 10° NE
Cosmos 540 Rocket 3.7 05:29:28 10° SSW 05:34:31 54° WNW 05:39:37 10° N
Cosmos 2026 Rocket 4.4 05:30:00 10° NNW 05:35:59 45° W 05:41:51 10° SSW
Cosmos 2322 Rocket 2.2 05:34:13 10° SSW 05:39:49 81° WNW 05:45:29 10° NNE
